Hourly Weather Roundup
Issued by NWS Central Illinois

Home | Current Version | Previous Version | Text Only | Print | Product List | Glossary On
Versions: 1 2 3 4 5 6 7 8 9 10 11 12 13 14 15 16 17 18 19 20 21 22 23 24 25 26 27 28 29 30 31 32 33 34 35 36 37 38 39 40 41 42 43 44 45 46 47 48 49 50
000
NZUS43 KILX 171410
HWRILX

Area Weather Roundup
National Weather Service Lincoln IL
800 AM CST SUN DEC 17 2017

NOTE:  "FAIR" indicates few or no clouds below 12,000 feet, with
       no sigificant weather and/or obstructions to visibility.


CITY           SKY/WX    TMP DP  RH WIND       PRES   REMARKS
Bloomington    CLOUDY    38  30  73 SW8       30.03F WCI  32
Champaign      CLOUDY    38  31  76 SE6       30.04F WCI  33
Danville       CLOUDY    38  31  77 S7        30.03F WCI  32
Decatur        CLOUDY    40  31  70 S8          N/A  WCI  34
Effingham      CLOUDY    41  33  74 SE7       30.11R
Flora          DRIZZLE   43  33  69 S9        30.11R
Galesburg      CLOUDY    36  30  78 S3        30.01S
Jacksonville   DRIZZLE   43  30  61 SW8       30.06R
Lacon          CLOUDY    29  26  88 CALM      30.02F
Lawrenceville  CLOUDY    43  32  65 S9        30.10F
Litchfield     CLOUDY    40  32  74 S9        30.08R WCI  34
$$


CITY           SKY/WX    TMP DP  RH WIND       PRES   REMARKS
Lincoln        CLOUDY    39  32  75 S5        30.04R
Macomb         CLOUDY    40  28  63 S5        30.03S
Mattoon        CLOUDY    40  32  73 S9        30.06F WCI  34
Mt Carmel AP   CLOUDY    42  32  66 S7        30.10F
Olney-Noble AP CLOUDY    42  30  64 S8        30.11R
Paris AP       CLOUDY    39  32  77 SE6       30.07F WCI  34
Peoria         CLOUDY    38  30  73 S3        30.02F
Pontiac        CLOUDY    33  31  90 E5        30.03F WCI  29
Rantoul        CLOUDY    37  33  82 SE6       30.03F WCI  33
Robinson       CLOUDY    41  32  71 S6        30.11S
Springfield    CLOUDY    43  31  62 S7        30.05R
Taylorville    CLOUDY    40  31  69 S8        30.06R
$$

...REGIONAL REPORTS...


CITY           SKY/WX    TMP DP  RH WIND       PRES   REMARKS
Chicago O`Hare CLOUDY    36  33  89 NE6       30.06R FOG     WCI  31
Kankakee       CLOUDY    32  28  86 SE6       30.06F WCI  26
Moline         CLOUDY    32  29  88 E7        30.02S FOG     WCI  26
Mount Sterling CLOUDY    41  30  64 S7        30.02S
Mount Vernon   CLOUDY    42  34  73 S7        30.11R
Pittsfield     LGT RAIN  44  37  75 S9        30.05R
Quincy         CLOUDY    45  29  53 SW10      30.02R
Rockford       CLOUDY    33  31  92 NE8       30.07S FOG     WCI  26
$$


CITY           SKY/WX    TMP DP  RH WIND       PRES   REMARKS
Burlington     CLOUDY    38  29  70 S6        29.99F WCI  33
Cedar Rapids   CLOUDY    30  28  92 E8        30.01R FOG     WCI  22
Des Moines     CLOUDY    32  25  75 CALM      30.00R
Kirksville     MOCLDY    44  31  60 SW7       30.02R
Ottumwa        CLOUDY    31  25  78 NE6       29.99R WCI  25
St Louis       CLOUDY    45  33  63 SE5       30.06R
$$


CITY           SKY/WX    TMP DP  RH WIND       PRES   REMARKS
Terre Haute    CLOUDY    41  30  65 SE7       30.07F
Evansville     CLOUDY    43  33  68 S7        30.16S
Indianapolis   CLOUDY    39  30  70 SE6       30.12F WCI  35
Lafayette      MOCLDY    37  31  78 S5        30.09S WCI  33
Madison        CLOUDY    31  28  89 E6        30.09R WCI  25
Milwaukee      CLOUDY    34  31  88 E10       30.10R FOG     WCI  26
$$





USA.gov is the U.S. government's official web portal to all federal, state and local government web resources and services.